Location: Moscow
(55.7500°N, 37.5830°E)
Time: 06:29:02
(UTC+03:00)

Vanguard 1 - Pass Details

Date: 08 December 2021
Orbit: 652 x 3830 km, 34.2° (Epoch: 21 January)

Event Time Altitude Azimuth Distance (km) Brightness Sun altitude
Rises 05:04:16 0° 273° (W) 7,971 - -29.4°
Reaches altitude 10° 05:11:31 10° 262° (W) 6,894 - -28.4°
Exits shadow 05:22:07 22° 236° (SW) 5,562 13.4 -26.9°
Maximum altitude 05:26:25 23° 220° (SW) 5,212 13.4 -26.3°
Drops below altitude 10° 05:38:09 10° 176° (S) 5,321 13.9 -24.6°
Sets 05:42:48 0° 163° (SSE) 5,847 14.3 -24.0°
